Home   Weather   Weno   Past weeks
Flag for Micronesia

Past Weather in Weno, Chuuk, Micronesia — Yesterday and Last 2 Weeks

Now
84 °F

Mostly cloudy.


Feels Like: 95 °F
Forecast: 87 / 81 °F
Wind: 8 mph from Northeast

Location: Truk Intl / Moen Island

Current Time: Apr 5, 2020 at 11:41:34 am

Latest Report: Apr 5, 2020 at 10:50 am


Visibility: 15 mi

Pressure: 29.85 "Hg

Humidity: 82%

Dew Point: 78 °F

Location of WenoLocation

Past Weather in Weno — Graph

°F

Weno Temperature Yesterday

Maximum temperature yesterday: 89 °F (at 12:52 pm)
Minimum temperature yesterday: 81 °F (at 5:50 am)
Average temperature yesterday: 84 °F

High & Low Weather Summary for the Past Weeks

 TemperatureHumidityPressure
High89 °F (Apr 2, 10:52 am)98% (Apr 5, 7:50 am)29.90 "Hg (Apr 5, 7:50 am)
Low76 °F (Mar 23, 4:52 am)67% (Mar 22, 2:50 pm)29.72 "Hg (Mar 23, 3:50 pm)
Average84 °F78%29.80 "Hg
* Reported Mar 21 9:50 am — Apr 5 9:50 am, Weno. Weather by CustomWeather, © 2020

Note: Actual official high and low records may vary slightly from our data, if they occured in-between our weather recording intervals... More about our weather records

Weno Weather History for the Previous 24 Hours

Scroll right to see more
 ConditionsComfort  
Time TempWeatherWind HumidityBarometerVisibility
9:50 am
Sun, Apr 5
85 °FMostly cloudy.8 mph84%29.87 "Hg15 mi
8:50 am80 °FMostly cloudy.8 mph91%29.89 "Hg15 mi
7:50 am78 °FLight rain. More clouds than sun.8 mph98%29.86 "Hg14 mi
6:51 am76 °FLight rain. More clouds than sun.8 mph96%29.85 "Hg12 mi
6:17 am77 °FRain showers. Mostly cloudy.8 mph94%29.83 "Hg8 mi
5:51 am80 °FSprinkles. More clouds than sun.6 mph93%29.82 "Hg14 mi
4:50 am81 °FMostly cloudy.7 mph92%29.79 "Hg15 mi
3:54 am82 °FMostly cloudy.6 mph88%29.78 "Hg15 mi
2:52 am82 °FMostly cloudy.6 mph87%29.78 "Hg15 mi
1:53 am82 °FMostly cloudy.8 mph89%29.79 "Hg15 mi
12:53 am82 °FOvercast.6 mph87%29.81 "Hg15 mi
11:50 pm
Sat, Apr 4
82 °FOvercast.6 mph89%29.83 "Hg15 mi
10:52 pm82 °FOvercast.8 mph89%29.85 "Hg15 mi
9:50 pm83 °FMostly cloudy.8 mph83%29.84 "Hg15 mi
8:50 pm83 °FOvercast.8 mph83%29.83 "Hg15 mi
7:50 pm83 °FMostly cloudy.7 mph82%29.81 "Hg15 mi
6:52 pm83 °FPassing clouds.7 mph79%29.79 "Hg15 mi
5:51 pm84 °FPartly sunny.7 mph79%29.76 "Hg15 mi
4:51 pm85 °FPartly sunny.7 mph76%29.74 "Hg15 mi
3:52 pm87 °FPartly sunny.8 mph72%29.74 "Hg15 mi
2:52 pm88 °FPartly sunny.8 mph71%29.74 "Hg15 mi
1:52 pm88 °FPartly sunny.9 mph70%29.75 "Hg15 mi
12:52 pm89 °FScattered clouds.9 mph69%29.78 "Hg15 mi
11:50 am88 °FScattered clouds.8 mph69%29.81 "Hg15 mi
Weather by CustomWeather, © 2020

See weather overview

Advertising